Regional Weather Roundup
Issued by NWS

Home | Current Version | Previous Version | Text Only | Print | Product List | Glossary Off
Versions: 1 2 3 4 5 6 7 8 9 10 11 12 13 14 15 16 17 18 19 20 21 22 23 24 25 26 27 28 29 30 31 32 33 34 35 36 37 38 39 40 41 42 43 44 45 46 47 48 49 50

941
ASUS45 KTFX 050610
RWRMT
MONTANA REGIONAL WEATHER ROUNDUP
NATIONAL WEATHER SERVICE GREAT FALLS MT
1100 PM MST THU FEB 04 2016

NOTE: "FAIR" INDICATES FEW OR NO CLOUDS BELOW 12000 FEET WITH NO
SIGNIFICANT WEATHER AND/OR OBSTRUCTIONS TO VISIBILITY.

MTZ001>007-043-050700-
WEST OF THE DIVIDE

CITY           SKY/WX    TMP DP  RH WIND       PRES   REMARKS
KALISPELL      MOCLDY    28  22  78 S6        30.34R WCI  22
MISSOULA       CLOUDY    29  25  85 W5        30.39R
BUTTE          CLOUDY    26  15  63 N3        30.29R
MULLAN PASS    CLOUDY    25  21  85 VRB6      30.29F WCI  18
ANACONDA         N/A     30  18  59 W10G16    30.31R WCI  21
DEER LODGE       N/A     30  21  69 NW9       30.32R WCI  22
HAMILTON         N/A     37  19  48 W3        30.37R
LIBBY            N/A     28  25  86 CALM      30.38S
PLAINS           N/A     29  21  71 CALM      30.37R
$$

MTZ008-052>055-050700-
SOUTHWEST MONTANA

CITY           SKY/WX    TMP DP  RH WIND       PRES   REMARKS
BOZEMAN        CLOUDY    30  21  69 W3        30.28R
DILLON         CLEAR     25  15  66 SW16      30.30R WCI  12
ENNIS          CLOUDY    27  16  63 S15       30.34S WCI  15
THREE FORKS      N/A     35   1  23 CALM      30.24R
TWIN BRIDGES     N/A     27  13  55 SE5       30.25R
$$

MTZ009-010-012-014-046-048-049-054-050700-
EAST SLOPES AND CENTRAL MONTANA

CITY           SKY/WX    TMP DP  RH WIND       PRES   REMARKS
CUT BANK       CLEAR     30  19  63 W22       30.14R WCI  17
GREAT FALLS    CLEAR     28  17  63 SW12      30.20R WCI  18
MALMSTROM AFB  CLEAR     30  19  63 SW10      30.21R WCI  21
HELENA         CLEAR     34  20  56 W13       30.26R WCI  25
CHOTEAU          N/A     30  16  55 SW7       30.20R WCI  23
$$

MTZ011-013-016-021-045-047-050-051-050700-
NORTH CENTRAL MONTANA

CITY           SKY/WX    TMP DP  RH WIND       PRES   REMARKS
HAVRE          CLOUDY    27  24  89 SW10      30.16R WCI  17
LEWISTOWN      CLOUDY    27  21  78 W15       30.17R WCI  15
N BAR RANCH    MOCLDY    30  21  69 W23       30.12R WCI  17
CHINOOK          N/A     27  25  93 W6        30.15R WCI  20
$$

MTZ017>020-022>027-061-062-050700-
NORTHEAST MONTANA

CITY           SKY/WX    TMP DP  RH WIND       PRES   REMARKS
GLASGOW        CLOUDY    24  20  84 N12       30.10R WCI  13
JORDAN           N/A     31  28  89 NW16      30.09R WCI  20
SIDNEY         CLOUDY    32  28  86 N9        30.04R WCI  24
WOLF POINT     PTCLDY    28  23  81 NW6       30.08R WCI  22
PLENTYWOOD       N/A     21  18  86 N6        30.04R WCI  14
POPLAR           N/A     28  25  86 N6        30.08R WCI  22
SCOBEY           N/A     16   7  67 SW1       30.05R
$$

MTZ028>42-056>058-050700-
SOUTHCENTRAL AND SOUTHEAST MONTANA

CITY           SKY/WX    TMP DP  RH WIND       PRES   REMARKS
BAKER          CLOUDY    32  23  69 W10       30.02R WCI  24
BILLINGS       CLOUDY    34  25  69 NW21G36   30.19R WCI  22
LIVINGSTON     CLOUDY    30  22  72 W23G31    30.23R WCI  17
MILES CITY     LGT SNOW  32  28  85 NW14      30.09R FOG     WCI  22
EKALAKA          N/A     32  22  67 SW9       29.97  WCI  24
FORSYTH          N/A     36  28  75 W15G22    30.12R WCI  26
LAUREL           N/A     33  16  50 NW2       30.17R
ROUNDUP          N/A     34  24  67 SW12      30.05S WCI  25
$$

REGIONAL REPORTS...DAKOTAS

CITY           SKY/WX    TMP DP  RH WIND       PRES   REMARKS
WILLISTON      CLOUDY    28  27  96 CALM      30.04R
MINOT          CLOUDY    27  17  66 W3        30.00R
DICKINSON      CLOUDY    29  26  89 W7        29.98R WCI  22
BEACH          LGT SNOW  32  32 100 W10       30.04R WCI  24
CROSBY         MOCLDY    19  19 100 NW9       30.07R WCI   9
TIOGA          MOCLDY    25  25 100 NW7       30.06R WCI  17
WATFORD CITY   CLOUDY    28  28 100 CALM      30.03R
BISMARCK       CLOUDY    33  21  61 SW6       30.05R WCI  28
GRAND FORKS    CLEAR     16  10  77 S7        30.16S WCI   6
FARGO          CLEAR     17  11  77 S10       30.19S WCI   5
BUFFALO SD       N/A     31  23  72 W12       29.95S WCI  22
RAPID CITY     CLOUDY    29  22  75 S6        30.08R WCI  23
$$

REGIONAL REPORTS...WYOMING/IDAHO/WASHINGTON

CITY           SKY/WX    TMP DP  RH WIND       PRES   REMARKS
GILLETTE       MOCLDY    29  15  56 NW15      30.11R WCI  18
SHERIDAN       LGT SNOW  30  26  85 NW18      30.18R WCI  18
BUFFALO WY     CLOUDY    32  19  58 NW21G32   30.12R WCI  20
CODY           CLOUDY    30   9  40 W9G18     30.20R WCI  22
YELLOWSTONE LA   N/A      5   1  83 CALM      30.27R
IDAHO FALLS    CLOUDY    17  14  88 W8        30.42S FOG     WCI   7
SALMON         CLOUDY    10   9  92 CALM      30.45R
BOISE          CLOUDY    33  32  96 W3        30.48R FOG
SPOKANE        CLOUDY    32  31  96 SE6       30.40R WCI  26
$$

REGIONAL REPORTS...ALBERTA

CITY           SKY/WX    TMP DP  RH WIND       PRES   REMARKS
EDMONTON       CLEAR     21  14  73 SW9       29.95F WCI  11
CALGARY        PTCLDY    36  10  35 W16G22    30.02F WCI  26
LETHBRIDGE     CLEAR     34  19  55 W21G26    30.10S WCI  22
MEDICINE HAT   CLEAR     21  18  86 SW9       30.12S WCI  11
WATERTON GATE    N/A     34  16  47 SW24G36     N/A  WCI  21
CARDSTON         N/A     36  14  41 W13G20      N/A  WCI  27
MILK RIVER       N/A     25  18  74 W10         N/A  WCI  15
$$

REGIONAL REPORTS...SASKATCHEWAN

CITY           SKY/WX    TMP DP  RH WIND       PRES   REMARKS
SWIFT CURRENT  CLOUDY    19 N/A N/A W14       30.06R WCI   6
REGINA         PTCLDY     9   7  92 W8        30.08R WCI  -4
SASKATOON      CLOUDY    10   9  92 SW9       30.13R FOG     WCI  -2
CYPRESS HILLS    N/A     25  18  74 NW10        N/A  WCI  15
VAL MARIE        N/A     14  12  92 W6          N/A  WCI   5
ROCKGLEN         N/A     14  12  92 NW5         N/A
ASSINIBOIA       N/A     16  10  79 SW9         N/A  WCI   4
$$




USA.gov is the U.S. government's official web portal to all federal, state and local government web resources and services.